Погода в Тыхы

Польша     50°07′22″N   18°59′07″E
темп.,
°C
ветер,
м/с
пор.,
м/с
влажн.,
%
обл.,
%
осадки,
мм/ч
давл.,
гПа
погр.,
м
3 марта, ср
ср301:00+4юз11800 0.0 103422
04:00+3юз22790 0.0 103222
07:00+3юз12740 0.0 103122
10:00+9юз11530 0.0 1030207
13:00+13зюз13420 0.0 1028453
16:00+12зюз365233 0.0 1025343
19:00+8зюз4116717 0.0 1025288
22:00+6юз37710 0.0 1024206
4 марта, чт
чт401:00+5юз377625 0.0 1023199
04:00+4юз487770 0.0 1020189
07:00+4зюз487868 0.0 1019217
10:00+9зюз596314 0.0 1017519
13:00+11з696014 0.0 1015750
16:00+10зюз696452 0.0 1013759
19:00+8з488259 0.3 1013461
22:00+7з2390100 1.0 1013173
5 марта, пт
пт501:00+5ссв2492100 9.1 1013338
04:00+2ссв4795100 1.8 1013429
07:00+1с1298100 4.9 101580
10:00+1св4679100 1.6 1017720
13:00+3ссв4655100 1.7 10191267
16:00+3ссв355132 0.0 10201652
19:000ссв246259 0.1 1023248
22:000ссз236571 0.1 1025194
6 марта, сб
сб601:00−1сз246752 0.1 1027141
04:00−1зсз36750 0.1 1028309
07:00−2сз36753 0.1 1030548
10:00+1сз456059 0.1 10311102
13:00+2сз344552 0.3 10311752
16:00+2сз3448100 0.1 10311606
19:00−1з236066 0.1 103289
22:00−1юз35660 0.0 1032134
7 марта, вс
вс701:00−1юз36640 0.0 1031227
04:00−2юз49620 0.0 1029359
07:00−1юз511590 0.0 1028506
10:00+2зюз694517 0.0 1027786
13:00+4зюз684115 0.0 10241080
16:00+4зюз474720 0.0 1022880
19:000зюз346135 0.0 102293
22:00−1юз356322 0.0 1022107